Regional Weather Roundup
Issued by NWS

Home | Current Version | Previous Version | Graphics & Text | Print | Product List | Glossary On
Versions: 1 2 3 4 5 6 7 8 9 10 11 12 13 14 15 16 17 18 19 20 21 22 23 24 25 26 27 28 29 30 31 32 33 34 35 36 37 38 39 40 41 42 43 44 45 46 47 48 49 50
000
ASUS44 KMEG 030400
RWRTN
TENNESSEE HOURLY STATE WEATHER ROUNDUP
NATIONAL WEATHER SERVICE MEMPHIS TN
1100 PM CDT THU JUL 02 2015

TNZ002-004-019-021-049-052-054-088>092-030500-
WEST TENNESSEE

CITY           SKY/WX    TMP DP  RH WIND       PRES   REMARKS
MEMPHIS INTL   CLOUDY    84  69  60 SW13G29   29.91R
NWS MEMPHIS      N/A     83 N/A N/A MISG        N/A
JACKSON        TSTM      76  73  91 VRB3      29.90R
DYERSBURG        N/A    N/A N/A N/A MISG        N/A
PARIS          MOCLDY    72  70  94 SW5       29.89R
LEXINGTON      MOCLDY    73  72  94 VRB3      29.89S
$$

TNZ008-025-027-028-033-062-065-066-030500-
NORTH MIDDLE TENNESSEE

CITY           SKY/WX    TMP DP  RH WIND       PRES   REMARKS
NASHVILLE      CLOUDY    76  72  87 S3        29.89F
CLARKSVILLE    CLOUDY    74  72  93 SW3       29.87R
COOKEVILLE     CLOUDY    70  70 100 SE3       29.91F
CROSSVILLE     TSTM      67  63  87 W7        29.97F FOG
$$

TNZ061-075-076-078-094-096-097-030500-
SOUTH MIDDLE TENNESSEE

CITY           SKY/WX    TMP DP  RH WIND       PRES   REMARKS
FAYETTEVILLE     N/A     73  70  88 SW6       29.95R
TULLAHOMA      CLOUDY    72  70  94 CALM      29.95S
WINCHESTER     CLOUDY    72  70  94 CALM      29.94F
SHELBYVILLE    CLOUDY   N/A N/A N/A MISG        N/A
$$

TNZ017-018-042-046-047-030500-
NORTHEAST TENNESSEE

CITY           SKY/WX    TMP DP  RH WIND       PRES   REMARKS
TRI CITIES     CLOUDY    68  66  93 CALM      29.97S
ELIZABETHTON   CLOUDY    64  64 100 E3        29.98S
$$

TNZ012-013-036-069-073-074-030500-
CENTRAL EAST TENNESSEE

CITY           SKY/WX    TMP DP  RH WIND       PRES   REMARKS
KNOXVILLE      LGT RAIN  72  68  87 SW15      29.92S
OAK RIDGE      LGT RAIN  73  69  87 VRB3      29.93F
GATLINBURG     MOCLDY    72  70  94 SE5       29.92F
$$

TNZ083-085-099-030500-
SOUTHEAST TENNESSEE

CITY           SKY/WX    TMP DP  RH WIND       PRES   REMARKS
CHATTANOOGA    CLOUDY    74  72  93 CALM      29.94R
$$

SKY/WX REPORTED AS FAIR MEANS FEW OR NO CLOUDS BELOW
12 THOUSAND FEET.




USA.gov is the U.S. government's official web portal to all federal, state and local government web resources and services.